<?xml version="1.0"?>
<gpx xmlns="http://www.topografix.com/GPX/1/1" xmlns:xsi="http://www.w3.org/2001/XMLSchema-instance" version="1.1" creator="GPX RubyGem 1.0.0 -- http://dougfales.github.io/gpx/" xsi:schemaLocation="http://www.topografix.com/GPX/1/1 http://www.topografix.com/GPX/1/1/gpx.xsd">
  <metadata>
    <name/>
    <time>2026-05-08T10:28:29+00:00</time>
    <bound minlat="90.0" minlon="180.0" maxlat="-90.0" maxlon="-180.0"/>
  </metadata>
  <trk>
    <name/>
    <trkseg>
      <trkpt lat="42.537759" lon="2.964707">
        <time>1970-01-01T00:00:00+00:00</time>
        <ele>59.0</ele>
      </trkpt>
      <trkpt lat="42.537814" lon="2.964776">
        <time>1970-01-01T00:00:00+00:00</time>
        <ele>58.0</ele>
      </trkpt>
      <trkpt lat="42.538639" lon="2.966313">
        <time>1970-01-01T00:00:00+00:00</time>
        <ele>57.0</ele>
      </trkpt>
      <trkpt lat="42.538903" lon="2.96671">
        <time>1970-01-01T00:00:00+00:00</time>
        <ele>55.0</ele>
      </trkpt>
      <trkpt lat="42.538975" lon="2.966741">
        <time>1970-01-01T00:00:00+00:00</time>
        <ele>55.0</ele>
      </trkpt>
      <trkpt lat="42.539583" lon="2.967005">
        <time>1970-01-01T00:00:00+00:00</time>
        <ele>54.0</ele>
      </trkpt>
      <trkpt lat="42.539879" lon="2.967112">
        <time>1970-01-01T00:00:00+00:00</time>
        <ele>54.0</ele>
      </trkpt>
      <trkpt lat="42.539615" lon="2.968089">
        <time>1970-01-01T00:00:00+00:00</time>
        <ele>53.0</ele>
      </trkpt>
      <trkpt lat="42.539548" lon="2.968244">
        <time>1970-01-01T00:00:00+00:00</time>
        <ele>53.0</ele>
      </trkpt>
      <trkpt lat="42.539152" lon="2.968454">
        <time>1970-01-01T00:00:00+00:00</time>
        <ele>53.0</ele>
      </trkpt>
      <trkpt lat="42.539097" lon="2.968706">
        <time>1970-01-01T00:00:00+00:00</time>
        <ele>53.0</ele>
      </trkpt>
      <trkpt lat="42.538919" lon="2.968958">
        <time>1970-01-01T00:00:00+00:00</time>
        <ele>54.0</ele>
      </trkpt>
      <trkpt lat="42.53903" lon="2.969071">
        <time>1970-01-01T00:00:00+00:00</time>
        <ele>53.0</ele>
      </trkpt>
      <trkpt lat="42.539241" lon="2.969352">
        <time>1970-01-01T00:00:00+00:00</time>
        <ele>52.0</ele>
      </trkpt>
      <trkpt lat="42.539378" lon="2.969602">
        <time>1970-01-01T00:00:00+00:00</time>
        <ele>52.0</ele>
      </trkpt>
      <trkpt lat="42.539552" lon="2.970122">
        <time>1970-01-01T00:00:00+00:00</time>
        <ele>52.0</ele>
      </trkpt>
      <trkpt lat="42.539397" lon="2.970326">
        <time>1970-01-01T00:00:00+00:00</time>
        <ele>52.0</ele>
      </trkpt>
      <trkpt lat="42.539346" lon="2.970449">
        <time>1970-01-01T00:00:00+00:00</time>
        <ele>52.0</ele>
      </trkpt>
      <trkpt lat="42.53931" lon="2.970723">
        <time>1970-01-01T00:00:00+00:00</time>
        <ele>52.0</ele>
      </trkpt>
      <trkpt lat="42.539706" lon="2.971603">
        <time>1970-01-01T00:00:00+00:00</time>
        <ele>52.0</ele>
      </trkpt>
      <trkpt lat="42.53969" lon="2.971688">
        <time>1970-01-01T00:00:00+00:00</time>
        <ele>52.0</ele>
      </trkpt>
      <trkpt lat="42.53935" lon="2.971962">
        <time>1970-01-01T00:00:00+00:00</time>
        <ele>51.0</ele>
      </trkpt>
      <trkpt lat="42.539279" lon="2.972037">
        <time>1970-01-01T00:00:00+00:00</time>
        <ele>51.0</ele>
      </trkpt>
      <trkpt lat="42.53931" lon="2.972214">
        <time>1970-01-01T00:00:00+00:00</time>
        <ele>51.0</ele>
      </trkpt>
      <trkpt lat="42.539353" lon="2.972334">
        <time>1970-01-01T00:00:00+00:00</time>
        <ele>50.0</ele>
      </trkpt>
      <trkpt lat="42.539469" lon="2.972278">
        <time>1970-01-01T00:00:00+00:00</time>
        <ele>50.0</ele>
      </trkpt>
      <trkpt lat="42.539591" lon="2.972514">
        <time>1970-01-01T00:00:00+00:00</time>
        <ele>50.0</ele>
      </trkpt>
      <trkpt lat="42.539994" lon="2.972938">
        <time>1970-01-01T00:00:00+00:00</time>
        <ele>49.0</ele>
      </trkpt>
      <trkpt lat="42.540034" lon="2.973153">
        <time>1970-01-01T00:00:00+00:00</time>
        <ele>48.0</ele>
      </trkpt>
      <trkpt lat="42.540065" lon="2.973571">
        <time>1970-01-01T00:00:00+00:00</time>
        <ele>48.0</ele>
      </trkpt>
      <trkpt lat="42.540129" lon="2.973662">
        <time>1970-01-01T00:00:00+00:00</time>
        <ele>48.0</ele>
      </trkpt>
      <trkpt lat="42.540239" lon="2.973641">
        <time>1970-01-01T00:00:00+00:00</time>
        <ele>48.0</ele>
      </trkpt>
      <trkpt lat="42.540413" lon="2.973523">
        <time>1970-01-01T00:00:00+00:00</time>
        <ele>48.0</ele>
      </trkpt>
      <trkpt lat="42.540836" lon="2.973587">
        <time>1970-01-01T00:00:00+00:00</time>
        <ele>48.0</ele>
      </trkpt>
      <trkpt lat="42.541172" lon="2.973555">
        <time>1970-01-01T00:00:00+00:00</time>
        <ele>48.0</ele>
      </trkpt>
      <trkpt lat="42.541678" lon="2.973453">
        <time>1970-01-01T00:00:00+00:00</time>
        <ele>47.0</ele>
      </trkpt>
      <trkpt lat="42.541891" lon="2.973335">
        <time>1970-01-01T00:00:00+00:00</time>
        <ele>46.0</ele>
      </trkpt>
      <trkpt lat="42.542006" lon="2.973292">
        <time>1970-01-01T00:00:00+00:00</time>
        <ele>46.0</ele>
      </trkpt>
      <trkpt lat="42.542152" lon="2.973357">
        <time>1970-01-01T00:00:00+00:00</time>
        <ele>46.0</ele>
      </trkpt>
      <trkpt lat="42.542279" lon="2.973362">
        <time>1970-01-01T00:00:00+00:00</time>
        <ele>46.0</ele>
      </trkpt>
      <trkpt lat="42.542529" lon="2.973288">
        <time>1970-01-01T00:00:00+00:00</time>
        <ele>45.0</ele>
      </trkpt>
      <trkpt lat="42.542629" lon="2.973258">
        <time>1970-01-01T00:00:00+00:00</time>
        <ele>45.0</ele>
      </trkpt>
      <trkpt lat="42.542714" lon="2.973233">
        <time>1970-01-01T00:00:00+00:00</time>
        <ele>45.0</ele>
      </trkpt>
      <trkpt lat="42.54288" lon="2.973233">
        <time>1970-01-01T00:00:00+00:00</time>
        <ele>44.0</ele>
      </trkpt>
      <trkpt lat="42.543074" lon="2.973274">
        <time>1970-01-01T00:00:00+00:00</time>
        <ele>44.0</ele>
      </trkpt>
      <trkpt lat="42.543178" lon="2.973304">
        <time>1970-01-01T00:00:00+00:00</time>
        <ele>44.0</ele>
      </trkpt>
      <trkpt lat="42.543346" lon="2.973362">
        <time>1970-01-01T00:00:00+00:00</time>
        <ele>43.0</ele>
      </trkpt>
      <trkpt lat="42.543563" lon="2.973426">
        <time>1970-01-01T00:00:00+00:00</time>
        <ele>43.0</ele>
      </trkpt>
      <trkpt lat="42.54384" lon="2.973625">
        <time>1970-01-01T00:00:00+00:00</time>
        <ele>42.0</ele>
      </trkpt>
      <trkpt lat="42.544231" lon="2.974076">
        <time>1970-01-01T00:00:00+00:00</time>
        <ele>42.0</ele>
      </trkpt>
      <trkpt lat="42.54421" lon="2.974166">
        <time>1970-01-01T00:00:00+00:00</time>
        <ele>42.0</ele>
      </trkpt>
      <trkpt lat="42.543902" lon="2.974573">
        <time>1970-01-01T00:00:00+00:00</time>
        <ele>44.0</ele>
      </trkpt>
      <trkpt lat="42.543769" lon="2.974821">
        <time>1970-01-01T00:00:00+00:00</time>
        <ele>46.0</ele>
      </trkpt>
      <trkpt lat="42.543966" lon="2.975808">
        <time>1970-01-01T00:00:00+00:00</time>
        <ele>47.0</ele>
      </trkpt>
      <trkpt lat="42.544279" lon="2.977444">
        <time>1970-01-01T00:00:00+00:00</time>
        <ele>48.0</ele>
      </trkpt>
      <trkpt lat="42.544377" lon="2.97775">
        <time>1970-01-01T00:00:00+00:00</time>
        <ele>48.0</ele>
      </trkpt>
      <trkpt lat="42.544496" lon="2.978319">
        <time>1970-01-01T00:00:00+00:00</time>
        <ele>47.0</ele>
      </trkpt>
      <trkpt lat="42.54454" lon="2.978667">
        <time>1970-01-01T00:00:00+00:00</time>
        <ele>47.0</ele>
      </trkpt>
      <trkpt lat="42.544599" lon="2.9789">
        <time>1970-01-01T00:00:00+00:00</time>
        <ele>47.0</ele>
      </trkpt>
      <trkpt lat="42.54384" lon="2.979388">
        <time>1970-01-01T00:00:00+00:00</time>
        <ele>49.0</ele>
      </trkpt>
      <trkpt lat="42.543473" lon="2.979581">
        <time>1970-01-01T00:00:00+00:00</time>
        <ele>50.0</ele>
      </trkpt>
      <trkpt lat="42.543302" lon="2.979646">
        <time>1970-01-01T00:00:00+00:00</time>
        <ele>50.0</ele>
      </trkpt>
      <trkpt lat="42.54101" lon="2.980403">
        <time>1970-01-01T00:00:00+00:00</time>
        <ele>54.0</ele>
      </trkpt>
      <trkpt lat="42.540839" lon="2.980454">
        <time>1970-01-01T00:00:00+00:00</time>
        <ele>55.0</ele>
      </trkpt>
      <trkpt lat="42.540526" lon="2.980547">
        <time>1970-01-01T00:00:00+00:00</time>
        <ele>56.0</ele>
      </trkpt>
      <trkpt lat="42.540284" lon="2.980655">
        <time>1970-01-01T00:00:00+00:00</time>
        <ele>57.0</ele>
      </trkpt>
      <trkpt lat="42.540147" lon="2.980716">
        <time>1970-01-01T00:00:00+00:00</time>
        <ele>57.0</ele>
      </trkpt>
      <trkpt lat="42.540084" lon="2.980724">
        <time>1970-01-01T00:00:00+00:00</time>
        <ele>57.0</ele>
      </trkpt>
      <trkpt lat="42.539917" lon="2.980746">
        <time>1970-01-01T00:00:00+00:00</time>
        <ele>57.0</ele>
      </trkpt>
      <trkpt lat="42.539466" lon="2.980649">
        <time>1970-01-01T00:00:00+00:00</time>
        <ele>59.0</ele>
      </trkpt>
      <trkpt lat="42.539177" lon="2.980619">
        <time>1970-01-01T00:00:00+00:00</time>
        <ele>59.0</ele>
      </trkpt>
      <trkpt lat="42.538545" lon="2.980599">
        <time>1970-01-01T00:00:00+00:00</time>
        <ele>60.0</ele>
      </trkpt>
      <trkpt lat="42.536989" lon="2.980868">
        <time>1970-01-01T00:00:00+00:00</time>
        <ele>63.0</ele>
      </trkpt>
      <trkpt lat="42.536652" lon="2.980993">
        <time>1970-01-01T00:00:00+00:00</time>
        <ele>64.0</ele>
      </trkpt>
      <trkpt lat="42.536273" lon="2.979706">
        <time>1970-01-01T00:00:00+00:00</time>
        <ele>65.0</ele>
      </trkpt>
      <trkpt lat="42.536242" lon="2.979503">
        <time>1970-01-01T00:00:00+00:00</time>
        <ele>64.0</ele>
      </trkpt>
      <trkpt lat="42.536092" lon="2.979524">
        <time>1970-01-01T00:00:00+00:00</time>
        <ele>65.0</ele>
      </trkpt>
      <trkpt lat="42.536028" lon="2.979503">
        <time>1970-01-01T00:00:00+00:00</time>
        <ele>65.0</ele>
      </trkpt>
      <trkpt lat="42.535613" lon="2.977834">
        <time>1970-01-01T00:00:00+00:00</time>
        <ele>64.0</ele>
      </trkpt>
      <trkpt lat="42.535641" lon="2.977679">
        <time>1970-01-01T00:00:00+00:00</time>
        <ele>64.0</ele>
      </trkpt>
      <trkpt lat="42.536028" lon="2.977502">
        <time>1970-01-01T00:00:00+00:00</time>
        <ele>63.0</ele>
      </trkpt>
      <trkpt lat="42.536068" lon="2.977432">
        <time>1970-01-01T00:00:00+00:00</time>
        <ele>63.0</ele>
      </trkpt>
      <trkpt lat="42.535827" lon="2.976772">
        <time>1970-01-01T00:00:00+00:00</time>
        <ele>62.0</ele>
      </trkpt>
      <trkpt lat="42.535823" lon="2.976724">
        <time>1970-01-01T00:00:00+00:00</time>
        <ele>62.0</ele>
      </trkpt>
      <trkpt lat="42.535601" lon="2.976203">
        <time>1970-01-01T00:00:00+00:00</time>
        <ele>62.0</ele>
      </trkpt>
      <trkpt lat="42.535384" lon="2.975769">
        <time>1970-01-01T00:00:00+00:00</time>
        <ele>61.0</ele>
      </trkpt>
      <trkpt lat="42.53538" lon="2.97557">
        <time>1970-01-01T00:00:00+00:00</time>
        <ele>61.0</ele>
      </trkpt>
      <trkpt lat="42.535333" lon="2.975366">
        <time>1970-01-01T00:00:00+00:00</time>
        <ele>62.0</ele>
      </trkpt>
      <trkpt lat="42.535131" lon="2.97483">
        <time>1970-01-01T00:00:00+00:00</time>
        <ele>61.0</ele>
      </trkpt>
      <trkpt lat="42.535131" lon="2.97483">
        <time>1970-01-01T00:00:00+00:00</time>
        <ele>61.0</ele>
      </trkpt>
      <trkpt lat="42.535333" lon="2.975366">
        <time>1970-01-01T00:00:00+00:00</time>
        <ele>62.0</ele>
      </trkpt>
      <trkpt lat="42.53538" lon="2.97557">
        <time>1970-01-01T00:00:00+00:00</time>
        <ele>61.0</ele>
      </trkpt>
      <trkpt lat="42.535384" lon="2.975769">
        <time>1970-01-01T00:00:00+00:00</time>
        <ele>61.0</ele>
      </trkpt>
      <trkpt lat="42.535601" lon="2.976203">
        <time>1970-01-01T00:00:00+00:00</time>
        <ele>62.0</ele>
      </trkpt>
      <trkpt lat="42.535823" lon="2.976724">
        <time>1970-01-01T00:00:00+00:00</time>
        <ele>62.0</ele>
      </trkpt>
      <trkpt lat="42.535827" lon="2.976772">
        <time>1970-01-01T00:00:00+00:00</time>
        <ele>62.0</ele>
      </trkpt>
      <trkpt lat="42.536068" lon="2.977432">
        <time>1970-01-01T00:00:00+00:00</time>
        <ele>63.0</ele>
      </trkpt>
      <trkpt lat="42.536028" lon="2.977502">
        <time>1970-01-01T00:00:00+00:00</time>
        <ele>63.0</ele>
      </trkpt>
      <trkpt lat="42.535641" lon="2.977679">
        <time>1970-01-01T00:00:00+00:00</time>
        <ele>64.0</ele>
      </trkpt>
      <trkpt lat="42.535613" lon="2.977834">
        <time>1970-01-01T00:00:00+00:00</time>
        <ele>64.0</ele>
      </trkpt>
      <trkpt lat="42.536028" lon="2.979503">
        <time>1970-01-01T00:00:00+00:00</time>
        <ele>65.0</ele>
      </trkpt>
      <trkpt lat="42.536092" lon="2.979524">
        <time>1970-01-01T00:00:00+00:00</time>
        <ele>65.0</ele>
      </trkpt>
      <trkpt lat="42.536242" lon="2.979503">
        <time>1970-01-01T00:00:00+00:00</time>
        <ele>64.0</ele>
      </trkpt>
      <trkpt lat="42.536273" lon="2.979706">
        <time>1970-01-01T00:00:00+00:00</time>
        <ele>65.0</ele>
      </trkpt>
      <trkpt lat="42.536652" lon="2.980993">
        <time>1970-01-01T00:00:00+00:00</time>
        <ele>64.0</ele>
      </trkpt>
      <trkpt lat="42.536989" lon="2.980868">
        <time>1970-01-01T00:00:00+00:00</time>
        <ele>63.0</ele>
      </trkpt>
      <trkpt lat="42.538545" lon="2.980599">
        <time>1970-01-01T00:00:00+00:00</time>
        <ele>60.0</ele>
      </trkpt>
      <trkpt lat="42.539177" lon="2.980619">
        <time>1970-01-01T00:00:00+00:00</time>
        <ele>59.0</ele>
      </trkpt>
      <trkpt lat="42.539466" lon="2.980649">
        <time>1970-01-01T00:00:00+00:00</time>
        <ele>59.0</ele>
      </trkpt>
      <trkpt lat="42.539917" lon="2.980746">
        <time>1970-01-01T00:00:00+00:00</time>
        <ele>57.0</ele>
      </trkpt>
      <trkpt lat="42.540084" lon="2.980724">
        <time>1970-01-01T00:00:00+00:00</time>
        <ele>57.0</ele>
      </trkpt>
      <trkpt lat="42.540147" lon="2.980716">
        <time>1970-01-01T00:00:00+00:00</time>
        <ele>57.0</ele>
      </trkpt>
      <trkpt lat="42.540284" lon="2.980655">
        <time>1970-01-01T00:00:00+00:00</time>
        <ele>57.0</ele>
      </trkpt>
      <trkpt lat="42.540526" lon="2.980547">
        <time>1970-01-01T00:00:00+00:00</time>
        <ele>56.0</ele>
      </trkpt>
      <trkpt lat="42.540839" lon="2.980454">
        <time>1970-01-01T00:00:00+00:00</time>
        <ele>55.0</ele>
      </trkpt>
      <trkpt lat="42.54101" lon="2.980403">
        <time>1970-01-01T00:00:00+00:00</time>
        <ele>54.0</ele>
      </trkpt>
      <trkpt lat="42.543302" lon="2.979646">
        <time>1970-01-01T00:00:00+00:00</time>
        <ele>50.0</ele>
      </trkpt>
      <trkpt lat="42.543473" lon="2.979581">
        <time>1970-01-01T00:00:00+00:00</time>
        <ele>50.0</ele>
      </trkpt>
      <trkpt lat="42.54384" lon="2.979388">
        <time>1970-01-01T00:00:00+00:00</time>
        <ele>49.0</ele>
      </trkpt>
      <trkpt lat="42.544599" lon="2.9789">
        <time>1970-01-01T00:00:00+00:00</time>
        <ele>47.0</ele>
      </trkpt>
      <trkpt lat="42.54454" lon="2.978667">
        <time>1970-01-01T00:00:00+00:00</time>
        <ele>47.0</ele>
      </trkpt>
      <trkpt lat="42.544496" lon="2.978319">
        <time>1970-01-01T00:00:00+00:00</time>
        <ele>47.0</ele>
      </trkpt>
      <trkpt lat="42.544377" lon="2.97775">
        <time>1970-01-01T00:00:00+00:00</time>
        <ele>48.0</ele>
      </trkpt>
      <trkpt lat="42.544279" lon="2.977444">
        <time>1970-01-01T00:00:00+00:00</time>
        <ele>48.0</ele>
      </trkpt>
      <trkpt lat="42.543966" lon="2.975808">
        <time>1970-01-01T00:00:00+00:00</time>
        <ele>47.0</ele>
      </trkpt>
      <trkpt lat="42.543769" lon="2.974821">
        <time>1970-01-01T00:00:00+00:00</time>
        <ele>46.0</ele>
      </trkpt>
      <trkpt lat="42.543902" lon="2.974573">
        <time>1970-01-01T00:00:00+00:00</time>
        <ele>44.0</ele>
      </trkpt>
      <trkpt lat="42.54421" lon="2.974166">
        <time>1970-01-01T00:00:00+00:00</time>
        <ele>42.0</ele>
      </trkpt>
      <trkpt lat="42.544231" lon="2.974076">
        <time>1970-01-01T00:00:00+00:00</time>
        <ele>42.0</ele>
      </trkpt>
      <trkpt lat="42.54384" lon="2.973625">
        <time>1970-01-01T00:00:00+00:00</time>
        <ele>42.0</ele>
      </trkpt>
      <trkpt lat="42.543563" lon="2.973426">
        <time>1970-01-01T00:00:00+00:00</time>
        <ele>43.0</ele>
      </trkpt>
      <trkpt lat="42.543346" lon="2.973362">
        <time>1970-01-01T00:00:00+00:00</time>
        <ele>43.0</ele>
      </trkpt>
      <trkpt lat="42.543178" lon="2.973304">
        <time>1970-01-01T00:00:00+00:00</time>
        <ele>44.0</ele>
      </trkpt>
      <trkpt lat="42.543074" lon="2.973274">
        <time>1970-01-01T00:00:00+00:00</time>
        <ele>44.0</ele>
      </trkpt>
      <trkpt lat="42.54288" lon="2.973233">
        <time>1970-01-01T00:00:00+00:00</time>
        <ele>44.0</ele>
      </trkpt>
      <trkpt lat="42.542714" lon="2.973233">
        <time>1970-01-01T00:00:00+00:00</time>
        <ele>45.0</ele>
      </trkpt>
      <trkpt lat="42.542629" lon="2.973258">
        <time>1970-01-01T00:00:00+00:00</time>
        <ele>45.0</ele>
      </trkpt>
      <trkpt lat="42.542529" lon="2.973288">
        <time>1970-01-01T00:00:00+00:00</time>
        <ele>45.0</ele>
      </trkpt>
      <trkpt lat="42.542279" lon="2.973362">
        <time>1970-01-01T00:00:00+00:00</time>
        <ele>46.0</ele>
      </trkpt>
      <trkpt lat="42.542152" lon="2.973357">
        <time>1970-01-01T00:00:00+00:00</time>
        <ele>46.0</ele>
      </trkpt>
      <trkpt lat="42.542006" lon="2.973292">
        <time>1970-01-01T00:00:00+00:00</time>
        <ele>46.0</ele>
      </trkpt>
      <trkpt lat="42.541891" lon="2.973335">
        <time>1970-01-01T00:00:00+00:00</time>
        <ele>46.0</ele>
      </trkpt>
      <trkpt lat="42.541678" lon="2.973453">
        <time>1970-01-01T00:00:00+00:00</time>
        <ele>47.0</ele>
      </trkpt>
      <trkpt lat="42.541172" lon="2.973555">
        <time>1970-01-01T00:00:00+00:00</time>
        <ele>48.0</ele>
      </trkpt>
      <trkpt lat="42.540836" lon="2.973587">
        <time>1970-01-01T00:00:00+00:00</time>
        <ele>48.0</ele>
      </trkpt>
      <trkpt lat="42.540413" lon="2.973523">
        <time>1970-01-01T00:00:00+00:00</time>
        <ele>48.0</ele>
      </trkpt>
      <trkpt lat="42.540239" lon="2.973641">
        <time>1970-01-01T00:00:00+00:00</time>
        <ele>48.0</ele>
      </trkpt>
      <trkpt lat="42.540129" lon="2.973662">
        <time>1970-01-01T00:00:00+00:00</time>
        <ele>48.0</ele>
      </trkpt>
      <trkpt lat="42.540065" lon="2.973571">
        <time>1970-01-01T00:00:00+00:00</time>
        <ele>48.0</ele>
      </trkpt>
      <trkpt lat="42.540034" lon="2.973153">
        <time>1970-01-01T00:00:00+00:00</time>
        <ele>48.0</ele>
      </trkpt>
      <trkpt lat="42.539994" lon="2.972938">
        <time>1970-01-01T00:00:00+00:00</time>
        <ele>49.0</ele>
      </trkpt>
      <trkpt lat="42.539591" lon="2.972514">
        <time>1970-01-01T00:00:00+00:00</time>
        <ele>50.0</ele>
      </trkpt>
      <trkpt lat="42.539469" lon="2.972278">
        <time>1970-01-01T00:00:00+00:00</time>
        <ele>50.0</ele>
      </trkpt>
      <trkpt lat="42.539353" lon="2.972334">
        <time>1970-01-01T00:00:00+00:00</time>
        <ele>50.0</ele>
      </trkpt>
      <trkpt lat="42.53931" lon="2.972214">
        <time>1970-01-01T00:00:00+00:00</time>
        <ele>51.0</ele>
      </trkpt>
      <trkpt lat="42.539279" lon="2.972037">
        <time>1970-01-01T00:00:00+00:00</time>
        <ele>51.0</ele>
      </trkpt>
      <trkpt lat="42.53935" lon="2.971962">
        <time>1970-01-01T00:00:00+00:00</time>
        <ele>51.0</ele>
      </trkpt>
      <trkpt lat="42.53969" lon="2.971688">
        <time>1970-01-01T00:00:00+00:00</time>
        <ele>52.0</ele>
      </trkpt>
      <trkpt lat="42.539706" lon="2.971603">
        <time>1970-01-01T00:00:00+00:00</time>
        <ele>52.0</ele>
      </trkpt>
      <trkpt lat="42.53931" lon="2.970723">
        <time>1970-01-01T00:00:00+00:00</time>
        <ele>52.0</ele>
      </trkpt>
      <trkpt lat="42.539346" lon="2.970449">
        <time>1970-01-01T00:00:00+00:00</time>
        <ele>52.0</ele>
      </trkpt>
      <trkpt lat="42.539397" lon="2.970326">
        <time>1970-01-01T00:00:00+00:00</time>
        <ele>52.0</ele>
      </trkpt>
      <trkpt lat="42.539552" lon="2.970122">
        <time>1970-01-01T00:00:00+00:00</time>
        <ele>52.0</ele>
      </trkpt>
      <trkpt lat="42.539378" lon="2.969602">
        <time>1970-01-01T00:00:00+00:00</time>
        <ele>52.0</ele>
      </trkpt>
      <trkpt lat="42.539241" lon="2.969352">
        <time>1970-01-01T00:00:00+00:00</time>
        <ele>52.0</ele>
      </trkpt>
      <trkpt lat="42.53903" lon="2.969071">
        <time>1970-01-01T00:00:00+00:00</time>
        <ele>53.0</ele>
      </trkpt>
      <trkpt lat="42.538919" lon="2.968958">
        <time>1970-01-01T00:00:00+00:00</time>
        <ele>54.0</ele>
      </trkpt>
      <trkpt lat="42.539097" lon="2.968706">
        <time>1970-01-01T00:00:00+00:00</time>
        <ele>53.0</ele>
      </trkpt>
      <trkpt lat="42.539152" lon="2.968454">
        <time>1970-01-01T00:00:00+00:00</time>
        <ele>53.0</ele>
      </trkpt>
      <trkpt lat="42.539548" lon="2.968244">
        <time>1970-01-01T00:00:00+00:00</time>
        <ele>53.0</ele>
      </trkpt>
      <trkpt lat="42.539615" lon="2.968089">
        <time>1970-01-01T00:00:00+00:00</time>
        <ele>53.0</ele>
      </trkpt>
      <trkpt lat="42.539879" lon="2.967112">
        <time>1970-01-01T00:00:00+00:00</time>
        <ele>54.0</ele>
      </trkpt>
      <trkpt lat="42.539583" lon="2.967005">
        <time>1970-01-01T00:00:00+00:00</time>
        <ele>54.0</ele>
      </trkpt>
      <trkpt lat="42.538975" lon="2.966741">
        <time>1970-01-01T00:00:00+00:00</time>
        <ele>55.0</ele>
      </trkpt>
      <trkpt lat="42.538903" lon="2.96671">
        <time>1970-01-01T00:00:00+00:00</time>
        <ele>55.0</ele>
      </trkpt>
      <trkpt lat="42.538639" lon="2.966313">
        <time>1970-01-01T00:00:00+00:00</time>
        <ele>57.0</ele>
      </trkpt>
      <trkpt lat="42.537814" lon="2.964776">
        <time>1970-01-01T00:00:00+00:00</time>
        <ele>58.0</ele>
      </trkpt>
      <trkpt lat="42.537759" lon="2.964707">
        <time>1970-01-01T00:00:00+00:00</time>
        <ele>59.0</ele>
      </trkpt>
    </trkseg>
  </trk>
</gpx>
